Weather History for Toledo, OH

Change the Weather History Date:

Monday, February 24, 2014

  Actual Average Record
Temperature  
Mean Temperature 22 °F 30 °F  
Max Temperature 25 °F 39 °F 61 °F (2000)
Min Temperature 18 °F 23 °F -4 °F (1914)
Degree Days  
Heating Degree Days 43 34  
Month to date heating degree days 1103 893  
Since 1 July heating degree days 5112 4442  
Cooling Degree Days 0 0  
Month to date cooling degree days 0 0  
Year to date cooling degree days 0 0  
Moisture  
Dew Point 11 °F    
Average Humidity 67    
Maximum Humidity 74    
Minimum Humidity 59    
Precipitation  
Precipitation T in 0.09 in 0.40 in (2001)
Month to date precipitation 3.83 1.75  
Year to date precipitation 7.12 3.80  
Snow  
Snow T in 0.30 in - ()
Month to date snowfall 20.8 8.3  
Since 1 July snowfall 72.7 29.4  
Snow Depth 4.00 in    
Sea Level Pressure  
Sea Level Pressure 30.17 in    
Wind  
Wind Speed 15 mph (West)    
Max Wind Speed 25 mph    
Max Gust Speed 31 mph    
Visibility 10 miles    
Events      
T = Trace of Precipitation, MM = Missing Value Source: NWS Daily Summary

Daily Weather History Graph

Daily Weather History Graph

Search for Another Location

Airport:

Trip Planner

Search our weather history database for the weather conditions in past years. The results will help you decide how hot, cold, wet, or windy it might be!

Date:

Astronomy

Feb. 24, 2014 Rise Set
Actual Time 7:17 AM EST 6:19 PM EST
Civil Twilight 6:49 AM EST 6:47 PM EST
Nautical Twilight 6:17 AM EST 7:20 PM EST
Astronomical Twilight 5:45 AM EST 7:52 PM EST
Moon 3:17 AM EST (2/24) 1:17 PM EST (2/24)
Length of Visible Light 11h 58m
Length of Day
11h 02m
Waning Crescent, 28% of the Moon is Illuminated
Feb 24
Waning Crescent
Mar 1
New
Mar 8
First Quarter
Mar 16
Full
Mar 23
Last Quarter

Hourly Weather History & Observations

Time (EST) Temp. Windchill Dew Point Humidity Pressure Visibility Wind Dir Wind Speed Gust Speed Precip Events Conditions
12:52 AM 19.9 °F 6.7 °F 10.9 °F 68% 30.12 in 10.0 mi WSW 13.8 mph - N/A   Clear
1:52 AM 19.0 °F 5.0 °F 10.9 °F 71% 30.13 in 10.0 mi WSW 15.0 mph - N/A   Clear
2:52 AM 19.0 °F 6.1 °F 12.0 °F 74% 30.12 in 10.0 mi WSW 12.7 mph - N/A   Mostly Cloudy
3:52 AM 18.0 °F 3.6 °F 10.9 °F 74% 30.12 in 10.0 mi West 15.0 mph - N/A   Mostly Cloudy
4:52 AM 19.0 °F 5.6 °F 10.9 °F 71% 30.12 in 10.0 mi West 13.8 mph - N/A   Scattered Clouds
5:52 AM 19.0 °F 5.6 °F 10.0 °F 68% 30.14 in 10.0 mi West 13.8 mph - N/A   Overcast
6:52 AM 19.0 °F 6.1 °F 10.0 °F 68% 30.14 in 10.0 mi West 12.7 mph - N/A   Overcast
7:52 AM 19.0 °F 4.0 °F 10.0 °F 68% 30.17 in 10.0 mi West 17.3 mph 23.0 mph N/A   Overcast
8:52 AM 19.0 °F 5.6 °F 10.0 °F 68% 30.19 in 10.0 mi West 13.8 mph 25.3 mph 0.00 in   Overcast
9:26 AM 19.4 °F 4.1 °F 10.4 °F 68% 30.16 in 10.0 mi West 18.4 mph 26.5 mph N/A   Overcast
9:52 AM 19.0 °F 2.7 °F 9.0 °F 65% 30.20 in 10.0 mi West 20.7 mph 29.9 mph N/A   Overcast
10:52 AM 19.9 °F 5.7 °F 10.0 °F 65% 30.20 in 10.0 mi WNW 16.1 mph - N/A   Overcast
11:52 AM 21.0 °F 7.1 °F 10.9 °F 65% 30.21 in 10.0 mi West 16.1 mph - N/A   Overcast
12:52 PM 23.0 °F 9.2 °F 10.9 °F 60% 30.20 in 10.0 mi West 17.3 mph 25.3 mph N/A   Mostly Cloudy
1:15 PM 23.0 °F 7.2 °F 12.2 °F 63% 30.16 in 10.0 mi West 23.0 mph 26.5 mph N/A   Mostly Cloudy
1:35 PM 24.8 °F 11.9 °F 14.0 °F 64% 30.16 in 10.0 mi WSW 16.1 mph 24.2 mph N/A   Overcast
1:52 PM 24.1 °F 10.6 °F 12.9 °F 62% 30.19 in 10.0 mi West 17.3 mph 25.3 mph N/A   Overcast
2:52 PM 25.0 °F 11.3 °F 14.0 °F 63% 30.19 in 10.0 mi WSW 18.4 mph 25.3 mph N/A   Mostly Cloudy
3:09 PM 24.8 °F 10.0 °F 12.2 °F 59% 30.16 in 10.0 mi West 21.9 mph 28.8 mph N/A   Mostly Cloudy
3:52 PM 24.1 °F 9.8 °F 14.0 °F 65% 30.19 in 10.0 mi WSW 19.6 mph 25.3 mph N/A   Mostly Cloudy
4:52 PM 25.0 °F 10.2 °F 12.9 °F 60% 30.20 in 10.0 mi West 21.9 mph 28.8 mph N/A   Overcast
5:52 PM 23.0 °F 9.2 °F 12.0 °F 63% 30.19 in 10.0 mi West 17.3 mph 27.6 mph N/A   Clear
6:52 PM 21.0 °F 8.6 °F 12.0 °F 68% 30.20 in 10.0 mi WSW 12.7 mph - N/A   Clear
7:52 PM 21.0 °F 8.6 °F 10.9 °F 65% 30.20 in 10.0 mi WSW 12.7 mph - N/A   Clear
8:52 PM 21.0 °F 9.9 °F 10.9 °F 65% 30.20 in 10.0 mi West 10.4 mph - N/A   Clear
9:52 PM 19.9 °F 8.6 °F 10.9 °F 68% 30.21 in 10.0 mi West 10.4 mph - N/A   Mostly Cloudy
10:52 PM 19.0 °F 11.1 °F 10.9 °F 71% 30.19 in 10.0 mi West 5.8 mph - N/A   Clear
11:52 PM 19.0 °F 11.1 °F 10.9 °F 71% 30.19 in 10.0 mi West 5.8 mph - N/A   Overcast